DW4776 Weather Reports


Display with metric or nautical units.
time (UTC)temp
F
wind
direction
speed
MPH
gust
MPH
rain 1hr
in
rain 24hr
in
rain mn
in
humidity
%
barometer
mb
20260506210038 63 32 12.0 19.0 0.00 0.00 0.00 21 1010.0
20260506204538 63 322 11.0 16.0 0.00 0.00 0.00 20 1010.3
20260506203037 62 267 4.0 21.0 0.00 0.00 0.00 21 1010.4
20260506201543 61 217 10.0 17.0 0.00 0.00 0.00 21 1010.7
20260506200044 60 285 11.0 21.0 0.00 0.00 0.00 21 1010.9
20260506194545 60 223 12.0 23.0 0.00 0.00 0.00 21 1011.1
20260506193037 59 274 12.0 19.0 0.00 0.00 0.00 23 1011.4
20260506191537 58 218 10.0 16.0 0.00 0.00 0.00 23 1011.6
20260506190037 56 176 10.0 16.0 0.00 0.00 0.00 24 1011.7
20260506184537 55 179 8.0 14.0 0.00 0.00 0.00 25 1012.0
20260506183037 55 222 12.0 18.0 0.00 0.00 0.00 24 1012.3
20260506181537 54 275 7.0 14.0 0.00 0.00 0.00 22 1012.6
20260506180041 53 182 8.0 19.0 0.00 0.00 0.00 23 1012.9
20260506174537 52 181 9.0 17.0 0.00 0.00 0.00 25 1013.2
20260506173043 51 185 6.0 18.0 0.00 0.00 0.00 27 1013.4
20260506171548 51 185 8.0 16.0 0.00 0.00 0.00 28 1013.6
20260506170040 50 171 11.0 19.0 0.00 0.00 0.00 31 1014.0
20260506164551 49 218 12.0 17.0 0.00 0.00 0.00 33 1014.1
20260506163041 48 216 8.0 17.0 0.00 0.00 0.00 37 1014.3
20260506161537 46 221 8.0 15.0 0.00 0.00 0.00 41 1014.6
20260506160039 45 175 11.0 15.0 0.00 0.00 0.00 43 1014.7
20260506154548 44 223 6.0 12.0 0.00 0.00 0.00 45 1015.0
20260506153036 42 206 8.0 14.0 0.00 0.00 0.00 46 1015.3
20260506151537 41 206 5.0 10.0 0.00 0.00 0.00 47 1015.5
20260506150104 41 212 6.0 9.0 0.00 0.00 0.00 47 1015.5
20260506144537 40 182 5.0 10.0 0.00 0.00 0.00 46 1015.5
20260506143037 39 180 5.0 9.0 0.00 0.00 0.00 46 1015.7
20260506141537 38 244 3.0 6.0 0.00 0.00 0.00 45 1016.0
20260506140039 37 229 2.0 4.0 0.00 0.00 0.00 48 1016.1
20260506134537 34 229 1.0 4.0 0.00 0.00 0.00 53 1016.2
20260506133037 31 212 3.0 4.0 0.00 0.00 0.00 58 1016.2
20260506131539 29 200 1.0 5.0 0.00 0.00 0.00 59 1016.1
20260506130037 27 205 1.0 4.0 0.00 0.00 0.00 61 1016.1
20260506124540 26 205 1.0 4.0 0.00 0.00 0.00 62 1016.4
20260506123042 25 205 2.0 5.0 0.00 0.00 0.00 64 1016.6
20260506121538 24 205 1.0 4.0 0.00 0.00 0.00 66 1016.5
20260506120104 23 205 3.0 5.0 0.00 0.00 0.00 67 1016.5
20260506114539 22 205 3.0 5.0 0.00 0.00 0.00 63 1016.6
20260506113037 23 205 1.0 4.0 0.00 0.00 0.00 65 1016.9
20260506111539 23 205 0.0 4.0 0.00 0.00 0.00 67 1017.1
20260506110038 22 205 3.0 5.0 0.00 0.00 0.00 69 1017.3
20260506104541 21 205 0.0 2.0 0.00 0.00 0.00 67 1017.4
20260506103037 21 0 0.0 2.0 0.00 0.00 0.00 64 1017.6
20260506101537 22 0 1.0 5.0 0.00 0.00 0.00 64 1017.6
20260506100041 22 205 1.0 4.0 0.00 0.00 0.00 63 1017.8
20260506094540 22 205 1.0 2.0 0.00 0.00 0.00 65 1018.0
20260506093044 23 205 1.0 2.0 0.00 0.00 0.00 63 1018.1
20260506091537 23 205 1.0 4.0 0.00 0.00 0.00 61 1018.1
20260506090040 24 0 2.0 5.0 0.00 0.00 0.00 60 1018.1
20260506084537 24 205 0.0 5.0 0.00 0.00 0.00 58 1018.2
20260506083042 25 205 0.0 3.0 0.00 0.00 0.00 57 1018.3
20260506081540 25 205 1.0 4.0 0.00 0.00 0.00 59 1018.6
20260506073037 24 177 0.0 2.0 0.00 0.00 0.00 56 1018.8
20260506071547 25 0 0.0 2.0 0.00 0.00 0.00 57 1018.8
20260506061538 26 298 1.0 2.0 0.00 0.00 0.00 52 1019.1
20260506044551 32 298 1.0 3.0 0.00 0.00 0.00 43 1019.3
20260506043037 34 298 1.0 4.0 0.00 0.00 0.00 44 1019.4
20260506041547 36 0 2.0 8.0 0.00 0.00 0.00 44 1019.3
20260506040044 35 354 7.0 9.0 0.00 0.00 0.00 45 1019.4
20260506034538 36 5 7.0 10.0 0.00 0.00 0.00 43 1019.3
20260506033038 38 2 6.0 8.0 0.00 0.00 0.00 42 1019.2
20260506031553 37 354 6.0 8.0 0.00 0.00 0.00 42 1019.3
20260506030048 38 359 5.0 8.0 0.00 0.00 0.00 39 1019.1
20260506024538 41 360 5.0 6.0 0.00 0.00 0.00 37 1019.0
20260506023040 42 4 6.0 12.0 0.00 0.00 0.00 36 1019.1
20260506021535 43 348 8.0 13.0 0.00 0.00 0.00 34 1019.1
20260506020037 44 329 10.0 17.0 0.00 0.00 0.00 34 1018.9
20260506014538 44 341 11.0 18.0 0.00 0.00 0.00 33 1018.9
20260506013041 45 347 14.0 20.0 0.00 0.00 0.00 32 1018.9
20260506011537 45 359 13.0 20.0 0.00 0.00 0.00 32 1018.7
20260506010040 46 360 12.0 19.0 0.00 0.00 0.00 32 1018.7
20260506004605 46 352 12.0 19.0 0.00 0.00 0.00 32 1018.6
20260506003038 46 349 14.0 28.0 0.00 0.00 0.00 31 1018.7
20260506001537 46 359 13.0 23.0 0.00 0.00 0.00 32 1018.7
20260506000041 46 351 14.0 23.0 0.00 0.00 0.00 31 1018.7
20260505234604 47 333 15.0 26.0 0.00 0.00 0.00 32 1018.7
20260505233041 47 324 17.0 25.0 0.00 0.00 0.00 31 1018.7
20260505231539 47 350 17.0 24.0 0.00 0.00 0.00 32 1018.6
20260505230047 47 354 16.0 24.0 0.00 0.00 0.00 32 1018.7
20260505224541 47 339 20.0 29.0 0.00 0.00 0.00 33 1018.6
20260505223058 47 352 16.0 24.0 0.00 0.00 0.00 32 1018.6
20260505221556 46 357 19.0 26.0 0.00 0.00 0.00 33 1018.6
20260505220048 46 279 16.0 25.0 0.00 0.00 0.00 32 1018.7
20260505214543 47 319 13.0 30.0 0.00 0.00 0.00 33 1018.8
20260505213046 46 353 14.0 28.0 0.00 0.00 0.00 32 1018.8
20260505211537 46 308 16.0 26.0 0.00 0.00 0.00 34 1019.1